Flag for Germany Weather past 2 weeks in Hürth, North Rhine-Westphalia, Germany

Now
41 °F

Sprinkles. Partly sunny.


Feels Like: 35 °F
Forecast: 34 / 40 °F
Wind: 9 mph from Southwest

Location: Noervenich

Current Time: Jan 29, 2015 at 4:02:41 PM

Latest Report: Jan 29, 2015 at 3:20 PM


Visibility: 6 mi

Pressure: 29.03 "Hg

Humidity: 66%

Dew point: 30 °F

Location of HürthLocation

Historic Weather in Hürth — Graph

°F

Hürth temperature yesterday

Maximum temperature yesterday: 43 °F (at 11:20 AM)
Minimum temperature yesterday: 36 °F (at 8:20 PM)
Average temperature yesterday: 40 °F

Past Weeks' High & Low Weather Summary

 TemperatureHumidityPressure
High52 °F (Jan 15, 1:20 PM)100% (Jan 17, 6:20 AM)30.42 "Hg (Jan 17, 6:20 AM)
Low25 °F (Jan 24, 3:20 AM)61% (Jan 18, 2:20 PM)29.06 "Hg (Jan 29, 2:20 PM)
Average36 °F84%29.95 "Hg
* Reported Jan 14 2:20 PM — Jan 29 2:20 PM, Hürth, Weather by CustomWeather, © 2014

Note: Actual official high and low records may vary slightly from our data, if they occured in-between our weather recording intervals... More about our weather records

Advertising

Hürth weather history for previous 24 hours

 ConditionsComfort  
Time TempWeatherWind HumidityBarometerVisibility
2:20 PM
Jan 29
41 °FPartly sunny.9 mph66%29.06 "HgN/A
1:20 PM41 °FBroken clouds.12 mph70%29.12 "HgN/A
12:20 PM41 °FScattered clouds.14 mph66%29.18 "HgN/A
11:20 AM39 °FScattered clouds.12 mph70%29.21 "HgN/A
10:20 AM37 °FScattered clouds.9 mph81%29.24 "HgN/A
9:20 AM36 °FBroken clouds.9 mph87%29.27 "HgN/A
8:55 AM37 °FSnow flurries. Scattered clouds.12 mph75%29.30 "HgN/A
8:20 AM36 °FScattered clouds.12 mph81%29.30 "HgN/A
7:20 AM37 °FPassing clouds.14 mph75%29.33 "HgN/A
6:20 AM37 °FPassing clouds.12 mph75%29.36 "HgN/A
5:20 AM36 °FPassing clouds.8 mph75%29.39 "HgN/A
4:20 AM36 °FPassing clouds.9 mph75%29.42 "HgN/A
3:20 AM36 °FPassing clouds.9 mph75%29.45 "HgN/A
2:20 AM36 °FPassing clouds.10 mph75%29.45 "HgN/A
1:20 AM36 °FPassing clouds.10 mph75%29.47 "HgN/A
12:20 AM36 °FPartly cloudy.13 mph81%29.47 "HgN/A
11:20 PM
Jan 28
37 °FPassing clouds.12 mph81%29.47 "HgN/A
10:20 PM37 °FPassing clouds.10 mph81%29.50 "HgN/A
9:20 PM37 °FPassing clouds.9 mph81%29.50 "HgN/A
8:20 PM36 °FPartly cloudy.8 mph93%29.50 "HgN/A
7:46 PM37 °FPartly cloudy.13 mph87%29.50 "HgN/A
7:20 PM37 °FSprinkles. Passing clouds.18 mph93%29.50 "Hg3 mi
6:20 PM43 °FLight rain. Partly cloudy.13 mph81%29.42 "HgN/A
5:20 PM43 °FLight rain. Partly cloudy.12 mph81%29.45 "HgN/A
4:20 PM43 °FBroken clouds.13 mph76%29.50 "HgN/A
Weather by CustomWeather, © 2014

See weather overviewHow to use our weather pages